Alice, TX

11:23 PM CDT on July 22, 2017 (GMT -0500)
Alice International

Weather History for KALI - March, 2013

Change the Weather History Date:

Saturday, March 30, 2013

  Actual Average Record
Temperature  
Mean Temperature 74 °F -  
Max Temperature 89 °F 77 °F 98 °F (2009)
Min Temperature 61 °F 57 °F 37 °F (2003)
Cooling Degree Days 10    
Growing Degree Days 24 (Base 50)    
Moisture  
Dew Point 63 °F    
Average Humidity 73    
Maximum Humidity 94    
Minimum Humidity 40    
Precipitation  
Precipitation 0.00 in - - ()
Sea Level Pressure  
Sea Level Pressure 30.01 in    
Wind  
Wind Speed 8 mph (SSE)    
Max Wind Speed 18 mph    
Max Gust Speed 25 mph    
Visibility 10 miles    
Events      
Averages and records for this station are not official NWS values.
T = Trace of Precipitation, MM = Missing Value Source: NWS Daily Summary

Daily Weather History Graph

Daily Weather History Graph

Search for Another Location

Airport or City:

Trip Planner

Search our weather history database for the weather conditions in past years. The results will help you decide how hot, cold, wet, or windy it might be!

Date:

Astronomy

Mar. 30, 2013 Rise Set
Actual Time 7:24 AM CDT 7:48 PM CDT
Civil Twilight 7:00 AM CDT 8:12 PM CDT
Nautical Twilight 6:33 AM CDT 8:39 PM CDT
Astronomical Twilight 6:05 AM CDT 9:07 PM CDT
Moon 11:35 PM CDT (3/30) 9:40 AM CDT (3/30)
Length of Visible Light 13h 11m
Length of Day
12h 24m
Waning Gibbous, 86% of the Moon is Illuminated
Mar 30
Waning Gibbous
Apr 2
Last Quarter
Apr 10
New
Apr 18
First Quarter
Apr 25
Full

Hourly Weather History & Observations

Time (CDT) Temp. Heat Index Dew Point Humidity Pressure Visibility Wind Dir Wind Speed Gust Speed Precip Events Conditions
12:53 AM 66.9 °F - 61.0 °F 81% 30.09 in 10.0 mi ESE 6.9 mph - N/A   Clear
1:53 AM 64.0 °F - 60.1 °F 87% 30.08 in 10.0 mi SE 5.8 mph - N/A   Clear
2:53 AM 63.0 °F - 60.1 °F 90% 30.06 in 10.0 mi ESE 5.8 mph - N/A   Clear
3:53 AM 62.1 °F - 60.1 °F 93% 30.04 in 10.0 mi SE 5.8 mph - N/A   Clear
4:53 AM 62.1 °F - 59.0 °F 90% 30.04 in 10.0 mi ESE 4.6 mph - N/A   Clear
5:53 AM 61.0 °F - 59.0 °F 93% 30.03 in 9.0 mi ESE 3.5 mph - N/A   Overcast
6:28 AM 62.6 °F - 60.8 °F 94% 30.05 in 9.0 mi Calm Calm - N/A   Overcast
6:38 AM 62.6 °F - 60.8 °F 94% 30.05 in 10.0 mi Calm Calm - N/A   Overcast
6:53 AM 63.0 °F - 60.1 °F 90% 30.05 in 10.0 mi SE 3.5 mph - N/A   Overcast
7:53 AM 64.9 °F - 62.1 °F 90% 30.05 in 10.0 mi SE 5.8 mph - N/A   Overcast
8:17 AM 66.2 °F - 62.6 °F 88% 30.05 in 10.0 mi SE 6.9 mph - N/A   Overcast
8:53 AM 66.9 °F - 63.0 °F 87% 30.07 in 10.0 mi SE 9.2 mph - N/A   Overcast
9:48 AM 69.8 °F - 64.4 °F 83% 30.07 in 10.0 mi SSE 8.1 mph - N/A   Overcast
9:53 AM 71.1 °F - 64.0 °F 78% 30.07 in 10.0 mi SSE 9.2 mph - N/A   Overcast
10:09 AM 73.4 °F - 64.4 °F 73% 30.07 in 10.0 mi SSE 8.1 mph - N/A   Overcast
10:36 AM 73.4 °F - 64.4 °F 73% 30.07 in 10.0 mi SSE 11.5 mph - N/A   Overcast
10:53 AM 73.9 °F - 64.9 °F 73% 30.06 in 10.0 mi South 9.2 mph - N/A   Overcast
11:28 AM 78.8 °F - 64.4 °F 61% 30.05 in 10.0 mi South 10.4 mph - N/A   Mostly Cloudy
11:53 AM 81.0 °F 82.7 °F 64.9 °F 58% 30.04 in 10.0 mi SSE 12.7 mph - N/A   Mostly Cloudy
12:02 PM 80.6 °F 82.3 °F 64.4 °F 58% 30.05 in 10.0 mi SSE 11.5 mph - N/A   Mostly Cloudy
12:19 PM 80.6 °F 81.8 °F 62.6 °F 54% 30.04 in 10.0 mi South 10.4 mph 19.6 mph N/A   Mostly Cloudy
12:53 PM 81.0 °F 82.2 °F 63.0 °F 54% 30.02 in 10.0 mi SSW 9.2 mph 19.6 mph N/A   Mostly Cloudy
1:53 PM 84.0 °F 84.4 °F 61.0 °F 46% 29.99 in 10.0 mi South 8.1 mph - N/A   Scattered Clouds
2:53 PM 87.1 °F 86.7 °F 60.1 °F 40% 29.95 in 10.0 mi South 12.7 mph - N/A   Mostly Cloudy
3:53 PM 87.1 °F 87.0 °F 61.0 °F 41% 29.92 in 10.0 mi SE 8.1 mph 20.7 mph N/A   Mostly Cloudy
4:53 PM 88.0 °F 88.4 °F 62.1 °F 42% 29.90 in 10.0 mi SSE 10.4 mph - N/A   Clear
5:53 PM 84.9 °F 86.6 °F 64.9 °F 51% 29.90 in 10.0 mi SSE 18.4 mph 25.3 mph N/A   Clear
6:53 PM 81.0 °F 82.7 °F 64.9 °F 58% 29.90 in 10.0 mi SE 16.1 mph - N/A   Clear
7:53 PM 75.9 °F - 64.9 °F 69% 29.90 in 10.0 mi SE 18.4 mph 24.2 mph N/A   Clear
8:53 PM 73.0 °F - 64.9 °F 76% 29.91 in 10.0 mi SE 16.1 mph 20.7 mph N/A   Clear
9:53 PM 71.1 °F - 64.9 °F 81% 29.93 in 10.0 mi SSE 11.5 mph - N/A   Clear
10:53 PM 71.1 °F - 64.9 °F 81% 29.94 in 10.0 mi SSE 11.5 mph - N/A   Clear
11:53 PM 70.0 °F - 64.9 °F 84% 29.95 in 10.0 mi SSE 10.4 mph - N/A   Clear